405  
ASUS43 KDTX 201010  
RWRMI  
MICHIGAN HOURLY REGIONAL WEATHER ROUNDUP  
NATIONAL WEATHER SERVICE DETROIT/PONTIAC MI  
ISSUED BY NATIONAL WEATHER SERVICE GRAND RAPIDS MI  
600 AM EDT THU SEP 20 2018  
 
NOTE: "FAIR" INDICATES FEW OR NO CLOUDS BELOW 12,000 FEET WITH NO  
SIGNIFICANT WEATHER AND/OR TO VISIBILITY
.  
 
MIZ047>049-052>055-059>063-066>070-074>076-081>083-201100-  
SOUTHEAST LOWER MICHIGAN  
 
CITY SKY/WX TMP DP RH WIND PRES REMARKS
 
ADRIAN FAIR 63 60 90 E6 30.05F  
ALMA CLOUDY 62 60 93 N5 30.07S  
ANN ARBOR LGT RAIN 63 60 90 NE6 30.05S FOG  
BAD AXE CLOUDY 58 56 93 CALM 30.09S  
DETROIT CITY FAIR 64 60 87 NE5 30.08S  
DETROIT CLOUDY 66 58 75 NE6 30.07R  
FLINT MOCLDY 61 57 87 SE5 30.07F  
GROSSE ILE MOCLDY 62 59 90 E5 30.06R  
HILLSDALE CLOUDY 64 57 77 SE7 30.04S  
HOWELL LGT RAIN 62 61 96 E6 30.07F  
 
CITY SKY/WX TMP DP RH WIND PRES REMARKS
 
JACKSON MOCLDY 65 63 93 E10 30.04F  
LANSING LGT RAIN 65 64 97 SE7 30.06S  
MASON LGT RAIN 66 63 90 E3 30.07R  
MONROE FAIR 61 60 96 S3 30.05S  
PONTIAC MOCLDY 62 58 86 E3 30.07R  
PORT HOPE N/A 61 58 90 CALM 30.09R  
PORT HURON FAIR 57 55 94 CALM 30.08F  
TRI CITIES MOCLDY 62 58 86 E5 30.09R  
YPSILANTI CLOUDY 65 60 84 E5 30.06F  

 
MIZ043>046-050>051-056>058-064>065-071>073-077>080-201100-  
SOUTHWEST LOWER MICHIGAN  
 
CITY SKY/WX TMP DP RH WIND PRES REMARKS
 
BATTLE CREEK CLOUDY 66 61 84 E7 30.03S  
BENTON HARBOR FAIR 69 63 81 SE9 29.96F  
BIG RAPIDS CLOUDY 62 60 94 SE3 30.06S  
COLDWATER FAIR 66 60 81 SE5 30.02F  
HOLLAND CLOUDY 67 64 90 E9 30.01F  
GRAND RAPIDS TSTM 65 64 97 NE8 30.04R FOG  
KALAMAZOO FAIR 66 61 84 VRB3 30.02S  
MARSHALL MOCLDY 66 64 91 E3 30.03S  
MOUNT PLEASANT CLOUDY 61 60 96 E5 30.06F  
MUSKEGON LGT RAIN 65 62 90 E8 30.01F  
STURGIS CLOUDY 69 61 76 S5 30.01S  

 
MIZ016>042-201100-  
NORTHERN LOWER MICHIGAN  
 
CITY SKY/WX TMP DP RH WIND PRES REMARKS
 
ALPENA LGT RAIN 58 56 93 CALM 30.12S FOG  
BEAVER ISLAND DRIZZLE 59 59 99 CALM 30.06F  
BELLAIRE CLOUDY 60 59 97 CALM 30.06F  
CADILLAC CLOUDY 60 58 95 E5 30.06F  
CHARLEVOIX CLOUDY N/A N/A N/A E3 30.10S  
GAYLORD CLOUDY 57 57 100 SE7 30.09S  
HOUGHTON LAKE CLOUDY 60 58 92 SE5 30.09S  
MANISTEE FAIR 61 60 97 E6 30.03S  
OSCODA CLOUDY 62 58 86 E6 30.10R  
PELLSTON LGT RAIN 60 59 96 SE5 30.09R  
TRAVERSE CITY CLOUDY 63 61 93 CALM 30.04S  
LUDINGTON RAIN 62 61 94 CALM 30.03S  

 
MIZ007>008-015-201100-  
EASTERN UPPER MICHIGAN  
 
CITY SKY/WX TMP DP RH WIND PRES REMARKS
 
KINROSS CLOUDY 58 57 97 E10 30.10F  
MACKINAC ISLAN DRIZZLE 58 57 97 SE7 30.08F  
NEWBERRY CLOUDY 57 56 97 NE3 30.09R FOG  
S. S. MARIE LGT RAIN 58 57 97 E7 30.10S FOG  

 
MIZ004>006-011>014-085-201100-  
CENTRAL UPPER MICHIGAN  
 
CITY SKY/WX TMP DP RH WIND PRES REMARKS
 
MANISTIQUE CLOUDY 56 50 82 N3 30.06S  
ESCANABA CLOUDY 57 56 96 N3 30.07R  
MENOMINEE CLOUDY 59 57 94 N5 30.06R  
SAWYER-GWINN CLOUDY 55 53 94 CALM 30.08S  

 
MIZ001>003-009>011-084-201100-  
WESTERN UPPER MICHIGAN  
 
CITY SKY/WX TMP DP RH WIND PRES REMARKS
 
IRON MOUNTAIN CLOUDY 56 55 97 CALM 30.06S  
HOUGHTON CLOUDY 54 52 93 E8 30.09R FOG  
COPPER HARBOR N/A 55 52 89 S5 30.10R  
IRONWOOD CLOUDY 54 53 97 NE6 30.07F FOG  

 
 
ABBREVIATIONS USED IN REMARKS  
TC - TEMPERATURE IN CELSIUS  
WCI - WIND CHILL INDEX  
HX - HEAT INDEX  
VSB - VISIBILITY  
 
 
 
CLICK HERE TO GO TO PREVIOUS BULLETINS.

The Nexlab MI Page Main Text Page